FW4781 Weather Reports


Display with metric or nautical units.
time (UTC)temp
F
wind
direction
speed
MPH
gust
MPH
rain 1hr
in
rain 24hr
in
rain mn
in
humidity
%
barometer
mb
20260505061104 56 40 0.0 0.0 0.00 0.00 0.00 87 1009.6
20260505060105 56 40 0.0 0.0 0.00 0.00 0.00 87 1009.6
20260505055104 56 40 0.0 0.0 0.00 0.00 0.00 86 1009.5
20260505054105 57 40 0.0 0.0 0.00 0.00 0.00 85 1009.3
20260505053105 57 40 0.0 0.0 0.00 0.00 0.00 84 1009.3
20260505052105 57 40 0.0 0.0 0.00 0.00 0.00 84 1009.1
20260505051105 57 40 0.0 0.0 0.00 0.00 0.00 83 1009.1
20260505050104 58 40 0.0 0.0 0.00 0.00 0.00 82 1009.1
20260505041105 60 40 0.0 0.0 0.00 0.00 0.00 80 1008.5
20260505040105 60 40 0.0 0.0 0.00 0.00 0.00 79 1008.5
20260505035105 60 40 0.0 0.0 0.00 0.00 0.00 80 1008.2
20260505034104 62 40 0.0 0.0 0.00 0.00 0.00 75 1008.0
20260505033104 65 40 0.0 0.0 0.00 0.00 0.00 72 1008.0
20260505032104 65 40 0.0 0.0 0.00 0.00 0.00 72 1008.0
20260505031104 66 40 0.0 0.0 0.00 0.00 0.00 71 1007.7
20260505030104 67 40 0.0 0.0 0.00 0.00 0.00 66 1007.7
20260505025104 67 40 0.0 0.0 0.00 0.00 0.00 65 1007.6
20260505024104 68 40 0.0 0.0 0.00 0.00 0.00 63 1007.5
20260505023104 68 40 0.0 0.0 0.00 0.00 0.00 63 1007.5
20260505022104 68 40 0.0 0.0 0.00 0.00 0.00 62 1007.5
20260505021105 68 40 0.0 0.0 0.00 0.00 0.00 62 1007.6
20260505020105 69 40 0.0 1.0 0.00 0.00 0.00 62 1007.6
20260505015104 70 40 0.0 3.0 0.00 0.00 0.00 62 1007.6
20260505014103 70 40 0.0 0.0 0.00 0.00 0.00 61 1007.6
20260505013104 71 40 0.0 3.0 0.00 0.00 0.00 61 1007.6
20260505012104 71 11 0.0 6.0 0.00 0.00 0.00 61 1007.6
20260505011104 71 120 0.0 3.0 0.00 0.00 0.00 61 1007.6
20260505010104 72 120 0.0 0.0 0.00 0.00 0.00 62 1007.6
20260505004104 72 120 0.0 0.0 0.00 0.00 0.00 63 1007.7
20260505003104 71 120 0.0 0.0 0.00 0.00 0.00 65 1007.7
20260505002103 70 120 0.0 0.0 0.00 0.00 0.00 64 1007.7
20260505000104 70 120 0.0 0.0 0.00 0.00 0.00 64 1007.7
20260504234105 71 120 1.0 3.0 0.00 0.00 0.00 63 1007.8
20260504233104 71 120 0.0 0.0 0.00 0.00 0.00 64 1007.8
20260504232104 69 120 0.0 3.0 0.00 0.00 0.00 69 1007.8
20260504230103 68 120 2.0 5.0 0.00 0.00 0.00 74 1007.9
20260504225104 69 120 0.0 3.0 0.00 0.00 0.00 72 1008.1
20260504224104 68 120 1.0 3.0 0.00 0.00 0.00 72 1008.2
20260504223104 68 120 2.0 3.0 0.00 0.00 0.00 73 1008.2
20260504222105 69 121 3.0 8.0 0.00 0.00 0.00 70 1008.4
20260504221104 68 121 3.0 7.0 0.00 0.00 0.00 73 1008.6
20260504213103 67 121 0.0 7.0 0.00 0.00 0.00 73 1008.9
20260504211104 67 120 0.0 5.0 0.00 0.00 0.00 74 1009.0
20260504210104 66 121 1.0 3.0 0.00 0.00 0.00 76 1009.0
20260504205104 66 121 1.0 3.0 0.00 0.00 0.00 78 1009.1
20260504204104 66 121 2.0 5.0 0.00 0.00 0.00 73 1009.1
20260504203104 67 121 3.0 8.0 0.00 0.00 0.00 74 1009.1
20260504200104 66 118 1.0 5.0 0.00 0.00 0.00 78 1009.1
20260504194104 66 154 0.0 1.0 0.00 0.00 0.00 75 1009.1
20260504193103 65 154 1.0 3.0 0.00 0.00 0.00 77 1009.4
20260504192108 63 154 0.0 2.0 0.00 0.00 0.00 79 1009.4
20260504191103 63 154 2.0 3.0 0.00 0.00 0.00 80 1009.6
20260504184104 63 167 1.0 3.0 0.00 0.00 0.00 77 1009.6
20260504183104 62 167 0.0 3.0 0.00 0.00 0.00 78 1009.6
20260504182103 62 167 0.0 3.0 0.00 0.00 0.00 80 1009.6
20260504181104 62 167 1.0 5.0 0.00 0.00 0.00 78 1009.6
20260504180103 61 167 1.0 3.0 0.00 0.00 0.00 78 1009.6
20260504175103 60 167 0.0 1.0 0.00 0.00 0.00 79 1009.6
20260504174103 60 167 0.0 3.0 0.00 0.00 0.00 81 1009.6
20260504172103 59 169 0.0 3.0 0.00 0.00 0.00 80 1009.6
20260504171104 59 170 1.0 3.0 0.00 0.00 0.00 82 1009.6
20260504160104 57 170 0.0 3.0 0.00 0.00 0.00 85 1009.2
20260504151104 56 278 0.0 0.0 0.00 0.00 0.00 82 1008.9
20260504150104 55 278 0.0 0.0 0.00 0.00 0.00 84 1008.8
20260504140104 51 278 0.0 0.0 0.00 0.00 0.00 88 1008.4
20260504130104 49 278 0.0 0.0 0.00 0.00 0.00 88 1008.0
20260504120104 50 278 0.0 0.0 0.00 0.00 0.00 85 1008.0
20260504110104 50 278 0.0 0.0 0.00 0.00 0.00 85 1008.0
20260504100104 52 278 0.0 0.0 0.00 0.00 0.00 80 1007.9
20260504090104 53 278 0.0 0.0 0.00 0.00 0.00 79 1007.8
20260504080104 54 278 0.0 0.0 0.00 0.00 0.00 78 1007.8